Temperature
15 14 13 12 11 9 7 5 4 3 2 1 0 -1 -1 -2 -2 -3 -4 -4 -5 -6 -7 -8 -8 -8 -9 -9 -9 -10 -11 -11 -12 -12 -11 -11 -11 -11 -11 -11 -11 -11 -10
15 14 13 12 10 9 7 5 4 2 1 1 -0 -1 -1 -2 -2 -3 -4 -4 -5 -6 -7 -7 -8 -8 -9 -9 -9 -10 -11 -11 -12 -12 -11 -11 -11 -11 -11 -11 -11 -11 -11
15 14 13 12 10 9 8 6 4 2 1 0 -0 -1 -1 -2 -2 -3 -3 -4 -5 -6 -7 -8 -8 -8 -9 -9 -10 -10 -10 -11 -11 -11 -11 -11 -11 -11 -11 -11 -11 -11 -11
14 14 13 12 11 9 7 5 4 2 1 0 -0 -1 -1 -2 -2 -3 -4 -4 -5 -6 -7 -7 -8 -8 -9 -9 -10 -10 -10 -10 -10 -11 -11 -11 -11 -11 -11 -12 -12 -12 -12
14 14 13 12 10 9 7 5 3 2 1 0 -1 -1 -2 -2 -2 -3 -4 -4 -5 -6 -7 -7 -8 -8 -9 -9 -10 -10 -10 -10 -10 -10 -10 -11 -11 -11 -11 -12 -12 -12 -12
14 13 13 11 10 8 6 4 3 1 1 -0 -1 -1 -2 -2 -2 -3 -4 -5 -5 -6 -7 -7 -8 -8 -9 -9 -10 -10 -10 -9 -9 -10 -10 -11 -11 -11 -11 -12 -12 -12 -12
13 13 12 11 10 8 6 4 2 1 0 -0 -1 -1 -2 -2 -3 -3 -4 -5 -6 -7 -7 -8 -8 -8 -9 -9 -9 -9 -9 -9 -10 -10 -11 -11 -11 -11 -12 -12 -12 -12 -12
12 12 12 10 9 7 5 3 2 1 0 -0 -1 -1 -2 -2 -3 -3 -4 -5 -6 -6 -7 -8 -8 -8 -9 -9 -9 -9 -9 -10 -10 -11 -11 -11 -11 -11 -11 -11 -12 -12 -12
12 11 10 9 8 6 5 3 2 1 0 -0 -1 -2 -2 -2 -3 -4 -4 -5 -5 -6 -7 -8 -8 -9 -9 -9 -9 -9 -9 -10 -10 -11 -11 -11 -11 -12 -12 -12 -12 -12 -12
10 9 9 8 7 6 4 3 1 1 0 -1 -1 -2 -2 -3 -3 -4 -4 -5 -5 -6 -7 -8 -8 -9 -9 -9 -9 -9 -10 -10 -10 -11 -11 -11 -11 -12 -12 -13 -13 -13 -13
9 9 8 8 6 5 3 1 0 -0 -1 -1 -1 -2 -2 -3 -3 -4 -4 -5 -5 -6 -7 -8 -8 -9 -9 -9 -9 -10 -10 -10 -10 -11 -11 -11 -12 -12 -12 -13 -13 -13 -13
8 8 8 7 5 4 2 0 -1 -1 -1 -2 -2 -2 -3 -3 -3 -4 -4 -5 -6 -7 -8 -8 -8 -9 -9 -10 -10 -10 -10 -11 -11 -11 -11 -12 -12 -12 -12 -12 -12 -13 -13
8 7 7 5 4 3 1 -1 -2 -2 -2 -2 -2 -2 -2 -3 -4 -4 -4 -5 -6 -7 -8 -8 -9 -9 -10 -10 -10 -10 -11 -11 -11 -12 -12 -12 -12 -12 -12 -12 -12 -12 -12
7 7 6 4 3 1 -0 -1 -2 -2 -2 -3 -2 -2 -3 -3 -3 -4 -4 -5 -6 -7 -8 -8 -9 -9 -9 -9 -10 -10 -10 -11 -12 -12 -12 -12 -12 -12 -12 -12 -12 -12 -11
6 6 5 3 2 0 -1 -1 -2 -2 -2 -2 -2 -2 -2 -3 -3 -4 -5 -5 -6 -7 -8 -8 -9 -9 -9 -9 -9 -10 -10 -11 -11 -11 -12 -12 -12 -12 -12 -12 -12 -12 -12
5 5 4 2 1 -1 -2 -3 -3 -4 -3 -3 -3 -3 -3 -3 -4 -4 -5 -5 -7 -8 -8 -9 -8 -9 -9 -9 -10 -10 -10 -11 -11 -11 -12 -12 -12 -12 -12 -12 -12 -12 -11
4 4 3 1 0 -1 -3 -3 -4 -4 -5 -5 -4 -4 -3 -3 -4 -5 -5 -6 -7 -8 -8 -8 -8 -9 -9 -10 -10 -10 -11 -11 -11 -11 -12 -12 -12 -12 -12 -12 -12 -12 -11
3 3 2 1 -1 -2 -3 -4 -5 -5 -5 -5 -4 -4 -4 -4 -4 -5 -6 -6 -7 -7 -7 -8 -8 -9 -9 -10 -10 -10 -11 -11 -11 -11 -11 -12 -12 -12 -12 -12 -12 -12 -11
2 2 1 0 -1 -3 -4 -5 -5 -6 -6 -5 -4 -4 -4 -4 -5 -6 -6 -6 -6 -7 -7 -8 -8 -9 -9 -10 -10 -10 -11 -11 -11 -11 -11 -12 -12 -12 -12 -12 -11 -11 -11
1 1 0 -0 -2 -3 -4 -5 -6 -6 -7 -6 -5 -4 -4 -5 -5 -5 -6 -6 -6 -7 -7 -8 -8 -9 -9 -10 -10 -10 -11 -11 -11 -11 -11 -12 -12 -12 -12 -11 -11 -11 -11
0 0 -0 -1 -2 -4 -5 -6 -6 -7 -7 -7 -5 -4 -4 -4 -4 -5 -5 -6 -6 -7 -7 -8 -8 -9 -9 -10 -10 -10 -11 -11 -11 -11 -11 -12 -12 -12 -12 -11 -11 -11 -10
-0 -0 -1 -2 -3 -4 -5 -6 -7 -7 -7 -7 -6 -5 -5 -5 -5 -5 -5 -5 -6 -7 -7 -8 -8 -9 -9 -10 -10 -10 -11 -11 -11 -11 -12 -12 -12 -12 -12 -11 -11 -11 -10
-1 -1 -1 -2 -3 -5 -6 -7 -7 -7 -7 -7 -7 -6 -5 -5 -4 -5 -5 -6 -6 -7 -7 -8 -8 -9 -9 -10 -10 -10 -11 -11 -11 -11 -12 -12 -12 -12 -12 -11 -11 -10 -10
-2 -2 -2 -3 -4 -5 -6 -7 -7 -7 -8 -7 -7 -6 -5 -5 -5 -5 -5 -6 -6 -7 -7 -8 -8 -9 -9 -9 -10 -10 -11 -11 -11 -11 -12 -12 -12 -12 -12 -11 -11 -10 -10
-2 -2 -2 -3 -4 -5 -6 -7 -8 -8 -8 -8 -7 -6 -5 -5 -5 -5 -5 -6 -6 -7 -7 -8 -8 -9 -9 -9 -10 -10 -10 -11 -11 -12 -12 -12 -12 -12 -12 -11 -11 -10 -9
-3 -3 -3 -3 -4 -5 -7 -7 -8 -8 -8 -7 -7 -6 -5 -5 -5 -5 -5 -6 -6 -7 -7 -8 -8 -9 -9 -10 -10 -10 -11 -11 -11 -11 -12 -12 -12 -12 -12 -11 -10 -10 -9
Wind_Speed
18 18 18 18 18 16 16 17 15 14 14 14 13 12 12 11 10 10 11 10 11 12 12 12 15 13 12 12 12 13 14 14 19 19 14 12 13 15 16 18 21 20 22
15 16 18 16 16 18 19 17 16 15 14 14 13 12 12 11 10 11 12 11 12 13 13 13 15 13 14 13 13 14 14 14 17 22 17 13 15 14 14 15 15 17 16
13 15 16 17 18 20 20 18 16 15 14 13 13 13 12 11 11 11 12 12 12 13 13 14 15 14 15 13 14 15 14 15 15 17 18 15 13 12 14 14 15 13 16
13 15 18 20 21 20 18 17 17 16 15 14 14 13 12 11 11 11 11 11 12 13 14 14 15 14 15 15 15 16 15 15 15 15 16 16 14 12 11 12 13 11 13
14 17 20 18 17 16 16 16 16 16 16 14 13 12 11 10 10 11 11 12 13 14 14 14 14 17 20 18 15 13 13 13 13 14 15 14 13 11 11 11 14 13 12
15 18 16 14 15 16 16 15 15 15 14 14 14 13 12 11 16 19 15 12 12 13 13 12 12 15 19 24 26 26 23 18 15 14 14 14 15 14 12 12 12 14 13
15 15 15 15 16 17 16 16 16 16 14 14 13 13 13 14 19 19 20 13 11 10 10 10 10 11 17 11 20 26 24 24 23 16 15 15 16 14 14 16 14 15 15
13 15 14 15 16 15 15 17 17 14 14 14 13 14 12 14 18 19 19 13 9 9 9 10 11 11 13 16 16 15 11 12 16 13 13 15 15 14 14 15 15 14 13
14 14 14 14 15 15 17 17 16 14 14 14 12 13 13 13 17 18 17 8 8 9 10 10 11 11 19 24 17 12 11 11 17 21 22 21 24 24 19 11 10 11 12
14 13 12 14 16 17 18 16 13 13 14 13 12 13 13 12 15 17 17 7 8 9 8 9 15 15 20 23 14 10 11 13 11 10 13 17 15 15 19 11 9 10 10
11 10 11 13 15 15 14 13 12 13 12 12 12 11 11 13 14 17 17 8 8 9 9 7 7 16 20 21 18 10 16 16 8 9 10 10 9 8 8 8 9 9 10
9 10 11 12 12 12 12 11 11 13 13 12 11 10 9 10 13 15 17 16 13 9 8 6 8 17 19 20 15 17 21 17 8 10 10 10 10 9 8 9 10 11 11
9 10 10 10 10 10 11 12 11 12 11 11 10 10 9 8 10 17 17 16 16 9 7 12 14 17 17 12 15 19 15 9 9 10 11 11 9 9 9 9 9 9 11
11 10 8 8 9 10 10 11 12 13 12 12 11 11 9 7 8 7 7 8 11 9 7 9 13 13 12 12 12 11 8 8 10 10 11 10 10 9 9 8 9 8 8
11 9 7 8 9 10 11 12 13 13 15 14 12 11 10 9 11 15 10 8 7 8 6 3 2 4 5 6 6 7 7 8 9 9 10 11 11 11 10 9 8 7 7
10 8 7 7 8 8 9 9 18 18 21 23 18 14 11 12 12 15 15 14 12 11 6 2 4 5 6 7 8 9 8 9 9 10 10 10 11 11 11 10 8 8 8
10 9 6 7 8 9 9 10 9 14 20 22 21 20 16 15 14 14 14 12 11 9 4 3 4 5 6 7 7 8 9 9 9 9 10 10 10 11 11 10 10 9 8
10 11 9 7 8 9 10 10 9 9 10 11 16 21 20 18 16 15 13 9 5 4 3 4 5 5 6 7 7 8 8 9 8 9 9 9 9 10 10 10 10 10 10
9 7 7 7 8 9 9 9 9 10 9 8 6 10 19 17 17 15 12 6 5 5 4 5 5 5 5 6 7 8 8 9 9 9 9 10 9 9 10 10 11 15 12
9 13 11 7 7 8 8 9 9 9 9 9 10 9 9 9 7 7 6 5 5 5 5 5 5 5 5 6 7 7 8 8 9 8 9 9 9 9 10 12 11 11 10
8 9 13 9 7 8 8 9 9 9 10 10 9 11 16 10 9 8 7 6 6 6 5 5 4 5 5 5 6 7 8 8 8 8 8 9 9 9 10 10 11 11 11
8 7 7 7 7 8 8 9 9 9 10 10 7 9 18 10 8 7 7 7 6 5 5 4 4 4 5 5 6 7 8 9 9 8 8 8 8 9 10 10 11 11 11
8 8 8 7 7 11 11 9 9 10 9 9 8 8 9 9 8 8 7 6 5 5 4 4 4 4 5 5 6 7 8 8 8 8 8 9 9 10 10 11 13 13 12
8 9 9 8 8 8 8 9 9 10 9 9 9 9 9 9 8 8 7 6 5 4 4 4 4 5 7 7 6 6 7 8 8 6 7 8 9 10 11 11 12 14 13
8 9 9 8 8 8 9 9 9 9 9 9 9 9 8 8 8 7 6 6 6 5 4 4 3 4 7 9 9 8 10 12 11 7 4 6 9 10 11 12 12 13 13
9 9 8 7 8 8 9 9 9 9 9 9 8 8 8 8 8 7 7 6 5 4 4 3 4 5 7 7 9 10 10 11 11 13 7 6 9 10 12 11 14 13 13
Wind_Direction
212 212 214 212 210 208 208 207 204 200 198 200 202 205 212 218 219 225 236 239 244 253 254 255 259 260 264 265 265 264 264 265 275 284 283 280 274 275 279 279 279 279 283
213 211 215 213 207 209 212 209 203 201 199 201 201 206 214 218 219 225 239 244 245 253 257 258 262 265 265 266 268 268 269 266 270 280 284 282 276 275 274 274 280 281 280
210 212 214 214 211 213 213 208 202 200 198 199 200 207 214 218 221 229 236 244 247 251 256 258 262 265 268 268 269 271 271 271 267 272 279 280 278 275 276 277 275 275 278
211 215 218 218 217 217 213 207 202 198 197 198 202 208 213 217 223 231 236 244 249 253 255 256 258 259 264 268 271 269 270 270 270 271 276 279 279 274 271 279 283 278 277
215 220 225 222 218 215 211 207 201 198 198 197 199 206 212 216 223 228 236 243 248 255 258 256 256 261 267 275 279 278 275 277 277 276 279 284 284 285 283 281 281 283 278
220 227 227 220 217 215 212 206 200 198 195 192 198 204 212 220 235 243 245 241 245 252 258 259 258 268 277 284 289 292 290 288 289 289 290 288 288 287 285 281 282 283 284
226 230 224 218 218 215 210 205 203 199 194 194 199 203 215 226 237 248 256 257 251 251 253 260 269 271 285 283 286 289 289 289 291 292 289 286 287 286 283 279 273 270 271
232 233 226 219 220 215 209 208 205 198 195 198 201 205 215 228 236 247 256 259 255 250 249 253 262 269 275 283 280 282 271 272 280 283 274 276 278 279 273 273 274 273 270
242 238 228 219 219 214 212 210 203 196 195 198 200 203 212 227 234 245 254 251 255 254 253 255 261 266 282 291 295 291 284 282 293 295 297 300 301 303 302 298 291 285 283
250 242 229 218 217 218 216 210 202 198 198 195 201 204 209 219 230 240 249 245 254 260 260 258 271 281 291 297 299 294 294 295 292 293 299 300 296 294 298 294 286 280 280
259 245 230 220 219 219 215 207 198 196 192 194 201 204 207 217 229 237 244 235 244 258 266 262 262 288 296 301 306 301 297 307 311 302 297 294 290 281 278 274 263 260 263
264 248 235 223 217 215 210 203 195 194 192 194 197 205 212 220 226 234 240 245 249 249 259 261 270 291 300 305 309 304 309 319 315 305 302 303 303 298 291 284 273 260 253
273 256 240 222 212 206 202 199 195 196 197 196 197 206 211 210 221 230 236 245 252 254 256 271 285 297 307 309 304 308 316 314 305 303 305 304 300 294 294 293 284 272 262
275 264 240 220 213 205 203 201 200 201 201 198 198 204 206 204 208 214 224 241 249 261 272 278 288 299 303 301 304 308 304 298 303 301 303 302 302 302 301 301 301 299 287
277 265 240 221 212 208 209 210 209 211 207 200 200 196 194 205 215 208 205 215 219 235 244 238 253 289 295 297 298 297 297 303 307 306 306 308 310 311 309 309 301 299 288
282 266 241 222 214 211 214 222 226 221 223 219 209 198 202 204 207 210 217 227 239 247 246 229 263 278 289 297 303 305 305 306 307 309 308 309 311 311 311 309 305 299 295
273 266 244 227 217 214 212 216 223 225 225 221 213 207 202 201 206 211 219 229 239 249 238 235 257 270 281 290 294 297 300 302 302 303 305 308 310 311 311 311 310 306 300
276 267 253 231 221 216 215 214 213 210 209 213 215 212 208 207 209 214 219 221 225 222 205 233 251 263 274 284 291 295 298 302 303 304 305 306 309 312 311 310 310 306 304
283 270 252 235 224 219 215 213 211 211 212 205 192 206 209 210 212 215 213 200 204 215 220 234 245 257 269 280 287 291 294 297 299 303 304 307 310 312 310 309 308 308 308
285 277 266 242 226 219 214 213 211 210 210 205 202 197 190 191 195 199 197 186 201 214 220 232 244 254 267 276 285 290 294 296 299 301 304 308 311 310 308 309 309 308 304
286 279 272 256 227 216 212 212 211 210 210 210 208 199 188 187 194 195 197 200 205 211 216 226 240 256 266 275 282 287 291 295 296 299 305 310 313 313 310 308 307 305 303
281 272 259 248 231 218 215 210 209 210 210 209 200 202 199 189 190 194 200 203 200 201 203 213 234 248 258 270 281 288 294 296 298 302 308 311 313 312 312 312 311 311 308
277 271 262 250 234 228 223 211 208 209 209 205 195 192 193 187 191 196 197 194 189 195 199 210 234 254 264 272 274 278 286 292 296 300 307 313 316 316 316 315 313 313 312
273 267 259 250 236 224 217 209 207 207 205 201 195 195 193 187 187 190 186 179 180 187 195 210 233 256 276 287 285 283 282 288 291 289 297 307 314 316 317 317 316 315 315
271 265 256 244 234 224 218 211 205 202 201 201 197 195 190 185 183 181 174 172 174 184 199 215 236 262 282 292 295 294 303 315 325 331 312 313 313 314 317 318 321 321 321
272 263 255 241 228 220 214 211 204 199 198 198 193 188 184 182 180 174 168 167 172 182 197 219 243 269 287 293 296 306 318 330 339 345 349 321 321 323 328 327 326 328 327
Height
1444 1443 1442 1442 1442 1443 1443 1445 1448 1451 1452 1453 1454 1455 1455 1455 1455 1454 1452 1450 1447 1445 1442 1439 1436 1434 1430 1426 1422 1417 1412 1407 1396 1384 1383 1379 1376 1373 1369 1366 1361 1357 1351
1436 1434 1433 1432 1432 1432 1432 1434 1437 1439 1442 1443 1445 1446 1447 1447 1447 1445 1444 1442 1439 1436 1434 1431 1427 1425 1422 1418 1413 1408 1403 1398 1391 1379 1373 1371 1367 1364 1360 1356 1352 1348 1343
1427 1425 1423 1422 1421 1420 1421 1423 1426 1429 1431 1433 1435 1437 1438 1439 1438 1437 1436 1433 1431 1428 1425 1422 1420 1417 1413 1409 1405 1399 1394 1389 1383 1375 1366 1362 1358 1355 1351 1347 1343 1338 1334
1419 1416 1413 1411 1411 1411 1411 1413 1415 1418 1421 1423 1426 1428 1429 1430 1430 1429 1427 1425 1422 1420 1417 1415 1412 1409 1405 1401 1396 1390 1386 1380 1375 1368 1360 1354 1350 1346 1343 1338 1333 1329 1325
1411 1407 1404 1402 1401 1400 1400 1402 1405 1407 1411 1414 1417 1419 1420 1421 1421 1421 1419 1417 1414 1412 1409 1407 1404 1401 1397 1394 1389 1384 1379 1373 1367 1361 1353 1347 1343 1339 1336 1331 1326 1321 1316
1402 1399 1396 1393 1391 1390 1390 1392 1395 1397 1401 1404 1406 1409 1411 1412 1413 1412 1411 1408 1406 1403 1401 1398 1396 1393 1390 1385 1382 1377 1373 1367 1361 1355 1348 1342 1336 1332 1327 1323 1319 1314 1308
1395 1390 1387 1384 1381 1379 1380 1381 1384 1387 1391 1394 1397 1400 1402 1404 1405 1404 1403 1401 1398 1396 1393 1391 1388 1385 1382 1377 1372 1368 1364 1359 1355 1350 1341 1334 1328 1324 1319 1314 1310 1306 1301
1387 1382 1378 1374 1371 1370 1369 1370 1373 1377 1381 1385 1388 1391 1393 1395 1396 1396 1395 1393 1390 1388 1386 1384 1381 1377 1374 1369 1364 1359 1355 1351 1346 1340 1333 1326 1321 1315 1311 1306 1302 1297 1293
1378 1374 1370 1366 1362 1360 1359 1359 1363 1367 1371 1375 1379 1382 1384 1387 1388 1388 1387 1385 1383 1380 1379 1377 1374 1370 1366 1363 1359 1353 1347 1342 1337 1332 1327 1320 1314 1308 1303 1299 1294 1291 1286
1370 1366 1362 1357 1354 1351 1350 1351 1353 1357 1361 1366 1370 1373 1376 1378 1380 1380 1379 1377 1375 1373 1371 1369 1367 1363 1360 1357 1353 1347 1340 1334 1328 1322 1317 1311 1305 1299 1295 1291 1287 1284 1280
1362 1357 1352 1348 1345 1343 1342 1342 1344 1348 1353 1357 1361 1364 1367 1369 1371 1372 1372 1370 1368 1366 1364 1362 1360 1357 1354 1351 1347 1341 1335 1330 1322 1316 1309 1302 1297 1292 1287 1283 1280 1277 1274
1354 1348 1344 1340 1337 1335 1334 1334 1336 1340 1344 1347 1352 1356 1359 1361 1363 1364 1364 1363 1362 1360 1358 1356 1353 1351 1348 1345 1340 1335 1331 1324 1317 1310 1303 1296 1291 1285 1280 1276 1273 1270 1267
1346 1340 1336 1332 1329 1327 1326 1327 1328 1331 1335 1338 1343 1347 1350 1353 1355 1356 1356 1356 1355 1354 1352 1350 1348 1345 1342 1338 1334 1329 1325 1318 1311 1305 1298 1292 1286 1280 1274 1270 1266 1262 1259
1338 1333 1328 1324 1321 1320 1319 1319 1320 1322 1326 1330 1334 1339 1342 1345 1348 1349 1349 1349 1348 1347 1346 1344 1342 1340 1336 1332 1328 1324 1319 1314 1308 1301 1294 1287 1281 1275 1270 1265 1260 1256 1253
1331 1326 1321 1317 1314 1312 1312 1312 1312 1315 1319 1323 1327 1332 1335 1338 1340 1342 1343 1343 1342 1341 1340 1338 1336 1334 1330 1327 1323 1319 1314 1309 1303 1297 1290 1283 1277 1271 1265 1261 1256 1252 1248
1324 1319 1314 1310 1307 1306 1305 1305 1306 1309 1312 1316 1321 1326 1328 1332 1334 1335 1336 1337 1336 1336 1335 1332 1331 1328 1325 1322 1318 1314 1310 1305 1299 1293 1287 1280 1274 1267 1261 1256 1252 1248 1244
1318 1313 1308 1304 1301 1299 1298 1298 1299 1302 1305 1309 1313 1318 1321 1325 1327 1329 1330 1331 1331 1330 1329 1327 1326 1323 1321 1318 1314 1310 1305 1301 1296 1290 1284 1277 1271 1264 1258 1253 1248 1244 1240
1312 1307 1302 1298 1295 1293 1292 1292 1293 1295 1298 1301 1306 1311 1315 1318 1321 1323 1324 1325 1325 1325 1323 1322 1321 1319 1316 1313 1310 1306 1302 1297 1292 1286 1280 1274 1268 1262 1255 1250 1244 1240 1235
1305 1300 1296 1292 1289 1287 1286 1286 1287 1289 1292 1295 1300 1304 1309 1312 1315 1317 1318 1319 1319 1319 1319 1317 1316 1314 1312 1309 1306 1302 1298 1293 1288 1283 1277 1271 1265 1259 1252 1246 1241 1236 1232
1299 1295 1290 1286 1283 1281 1280 1280 1281 1283 1286 1289 1293 1298 1303 1306 1309 1311 1313 1313 1314 1314 1314 1313 1312 1310 1308 1305 1302 1299 1295 1290 1285 1280 1274 1268 1262 1256 1249 1243 1237 1232 1227
1293 1289 1284 1280 1276 1275 1274 1274 1275 1278 1280 1283 1287 1292 1297 1300 1303 1306 1307 1309 1309 1310 1309 1308 1307 1306 1304 1302 1299 1295 1291 1287 1282 1277 1271 1265 1259 1252 1246 1240 1234 1229 1223
1287 1282 1278 1274 1271 1269 1268 1269 1270 1272 1275 1278 1282 1287 1292 1295 1298 1300 1303 1304 1305 1305 1305 1304 1303 1302 1300 1298 1295 1292 1288 1284 1279 1274 1268 1262 1256 1250 1243 1237 1231 1225 1220
1280 1276 1271 1268 1265 1263 1263 1263 1264 1267 1270 1273 1277 1282 1286 1289 1293 1296 1298 1300 1301 1301 1301 1300 1299 1298 1297 1295 1292 1289 1285 1281 1277 1272 1266 1259 1253 1247 1240 1234 1228 1222 1216
1274 1269 1265 1262 1259 1257 1257 1258 1259 1262 1265 1268 1272 1277 1282 1285 1289 1292 1295 1296 1297 1298 1297 1297 1296 1295 1294 1292 1290 1287 1283 1279 1275 1270 1264 1258 1252 1245 1238 1232 1225 1219 1213
1267 1263 1259 1255 1253 1252 1252 1253 1254 1257 1260 1264 1268 1272 1277 1281 1285 1288 1291 1293 1294 1294 1294 1294 1293 1292 1291 1289 1287 1285 1281 1278 1274 1269 1263 1257 1250 1244 1237 1230 1224 1217 1211
1260 1256 1252 1249 1247 1246 1246 1248 1250 1253 1256 1260 1264 1268 1273 1278 1282 1285 1288 1290 1291 1291 1291 1291 1290 1290 1289 1287 1285 1283 1280 1276 1272 1268 1262 1256 1249 1242 1236 1229 1223 1216 1210